Flag for Germany Weather past 2 weeks in Kassel, Hesse, Germany

Now
46 °F

Low clouds.


Feels Like: 42 °F
Forecast: 41 / 54 °F
Wind: 9 mph from Southeast

Location: Kassel / Calden

Current Time: Dec 18, 2014 at 8:30:26 AM

Latest Report: Dec 18, 2014 at 7:50 AM


Visibility: N/A

Pressure: 29.83 "Hg

Humidity: 93%

Dew point: 45 °F

Location of KasselLocation

Historic Weather in Kassel — Graph

°F

Kassel temperature yesterday

Maximum temperature yesterday: 43 °F (at 8:20 PM)
Minimum temperature yesterday: 36 °F (at 6:50 AM)
Average temperature yesterday: 38 °F

Past Weeks' High & Low Weather Summary

 TemperatureHumidityPressure
High48 °F (Dec 18, 5:50 AM)100% (Dec 3, 7:20 AM)30.36 "Hg (Dec 3, 7:20 AM)
Low28 °F (Dec 3, 7:20 AM)65% (Dec 14, 7:50 AM)29.42 "Hg (Dec 12, 1:50 PM)
Average37 °F87%29.94 "Hg
* Reported Dec 3 7:20 AM — Dec 18 7:20 AM, Kassel, Weather by CustomWeather, © 2014

Note: Actual official high and low records may vary slightly from our data, if they occured in-between our weather recording intervals... More about our weather records

Advertising

Kassel weather history for previous 24 hours

 ConditionsComfort  
Time TempWeatherWind HumidityBarometerVisibility
7:20 AM
Dec 18
46 °FMostly cloudy.8 mph93%29.83 "HgN/A
6:50 AM46 °FOvercast.9 mph93%29.83 "HgN/A
6:20 AM46 °FMostly cloudy.8 mph93%29.83 "HgN/A
5:50 AM48 °FMostly cloudy.9 mph87%29.80 "Hg6 mi
9:50 PM
Dec 17
43 °FOvercast.6 mph93%29.74 "HgN/A
9:20 PM43 °FOvercast.7 mph93%29.71 "Hg5 mi
8:50 PM43 °FLight rain. Overcast.6 mph93%29.71 "Hg2 mi
8:20 PM43 °FDrizzle. Overcast.6 mph93%29.68 "Hg3 mi
7:50 PM41 °FDrizzle. Overcast.5 mph93%29.68 "Hg3 mi
7:20 PM41 °FMostly cloudy.9 mph93%29.65 "Hg6 mi
6:50 PM41 °FDrizzle. Overcast.8 mph93%29.65 "Hg6 mi
6:20 PM39 °FOvercast.8 mph93%29.65 "Hg6 mi
5:50 PM39 °FOvercast.6 mph75%29.65 "Hg6 mi
5:20 PM39 °FDrizzle. Mostly cloudy.5 mph93%29.62 "Hg5 mi
4:50 PM39 °FDrizzle. Mostly cloudy.8 mph87%29.62 "Hg5 mi
4:20 PM39 °FMostly cloudy.8 mph87%29.62 "Hg5 mi
3:50 PM37 °FMostly cloudy.9 mph93%29.62 "Hg5 mi
3:20 PM37 °FMostly cloudy.12 mph93%29.59 "Hg5 mi
2:50 PM37 °FDrizzle. Mostly cloudy.10 mph93%29.59 "Hg6 mi
2:20 PM37 °FPartly sunny.12 mph87%29.59 "Hg6 mi
1:50 PM37 °FLight rain. Partly sunny.14 mph87%29.59 "Hg6 mi
1:20 PM37 °FLight rain. Partly sunny.13 mph87%29.62 "Hg5 mi
12:50 PM37 °FLight rain. Partly sunny.13 mph87%29.62 "Hg5 mi
12:20 PM37 °FLight rain. Partly sunny.15 mph87%29.62 "Hg5 mi
11:50 AM37 °FLight rain. Partly sunny.16 mph87%29.65 "Hg4 mi
11:20 AM37 °FLight rain. Partly sunny.14 mph87%29.68 "Hg5 mi
10:50 AM37 °FLight rain. Partly sunny.10 mph87%29.71 "Hg5 mi
10:20 AM37 °FLight rain. Partly sunny.12 mph87%29.71 "Hg6 mi
9:50 AM37 °FPartly sunny.13 mph87%29.71 "Hg5 mi
9:20 AM36 °FBroken clouds.13 mph93%29.74 "Hg6 mi
8:50 AM36 °FPartly sunny.9 mph93%29.77 "Hg4 mi
8:20 AM36 °FPassing clouds.9 mph93%29.77 "Hg5 mi
Weather by CustomWeather, © 2014

See weather overviewHow to use our weather pages